| time (UTC) | temp F | wind direction | speed MPH | gust MPH | rain 1hr in | rain 24hr in | rain mn in | humidity % | barometer mb |
| 20260504034008 | 47 | 323 | 3.0 | 5.0 | 0.00 | 0.00 | 0.00 | 97 | 1013.3 |
| 20260504033008 | 47 | 323 | 3.0 | 5.0 | 0.00 | 0.00 | 0.00 | 97 | 1013.3 |
| 20260504032003 | 47 | 318 | 2.0 | 6.0 | 0.00 | 0.00 | 0.00 | 97 | 1013.4 |
| 20260504031217 | 47 | 317 | 3.0 | 6.0 | 0.00 | 0.00 | 0.00 | 97 | 1013.4 |
| 20260504030003 | 47 | 326 | 3.0 | 7.0 | 0.00 | 0.00 | 0.00 | 98 | 1013.2 |
| 20260504025003 | 48 | 321 | 3.0 | 6.0 | 0.00 | 0.00 | 0.00 | 98 | 1013.2 |
| 20260504024003 | 48 | 321 | 3.0 | 6.0 | 0.00 | 0.00 | 0.00 | 98 | 1013.1 |
| 20260504023003 | 48 | 325 | 3.0 | 6.0 | 0.00 | 0.00 | 0.00 | 98 | 1013.0 |
| 20260504022003 | 48 | 321 | 3.0 | 7.0 | 0.00 | 0.00 | 0.00 | 98 | 1013.0 |
| 20260504021008 | 48 | 321 | 3.0 | 7.0 | 0.00 | 0.00 | 0.00 | 98 | 1012.9 |
| 20260504020003 | 48 | 322 | 3.0 | 6.0 | 0.00 | 0.00 | 0.00 | 98 | 1012.9 |
| 20260504015003 | 48 | 324 | 3.0 | 5.0 | 0.00 | 0.00 | 0.00 | 98 | 1012.6 |
| 20260504014003 | 48 | 326 | 3.0 | 7.0 | 0.00 | 0.00 | 0.00 | 98 | 1012.9 |
| 20260504013003 | 48 | 324 | 3.0 | 7.0 | 0.00 | 0.00 | 0.00 | 98 | 1012.8 |
| 20260504012003 | 48 | 325 | 2.0 | 7.0 | 0.00 | 0.00 | 0.00 | 98 | 1013.0 |
| 20260504011003 | 48 | 323 | 3.0 | 7.0 | 0.00 | 0.00 | 0.00 | 98 | 1013.0 |
| 20260504010008 | 48 | 327 | 2.0 | 5.0 | 0.00 | 0.00 | 0.00 | 98 | 1013.0 |
| 20260504005008 | 48 | 319 | 3.0 | 6.0 | 0.00 | 0.00 | 0.00 | 98 | 1013.0 |
| 20260504004008 | 49 | 329 | 3.0 | 7.0 | 0.00 | 0.00 | 0.00 | 98 | 1013.0 |
| 20260504003008 | 49 | 324 | 3.0 | 6.0 | 0.00 | 0.00 | 0.00 | 98 | 1012.8 |
| 20260504002008 | 49 | 321 | 3.0 | 5.0 | 0.00 | 0.00 | 0.00 | 97 | 1012.7 |
| 20260504001003 | 49 | 325 | 3.0 | 7.0 | 0.00 | 0.00 | 0.00 | 97 | 1012.8 |
| 20260504000003 | 49 | 322 | 3.0 | 6.0 | 0.00 | 0.01 | 0.00 | 97 | 1012.7 |
| 20260503235003 | 49 | 322 | 3.0 | 5.0 | 0.00 | 0.01 | 0.00 | 97 | 1012.6 |
| 20260503234008 | 49 | 318 | 2.0 | 6.0 | 0.00 | 0.01 | 0.00 | 97 | 1012.6 |
| 20260503233003 | 49 | 322 | 3.0 | 6.0 | 0.00 | 0.01 | 0.00 | 97 | 1012.6 |
| 20260503232008 | 49 | 322 | 3.0 | 5.0 | 0.00 | 0.01 | 0.00 | 97 | 1012.5 |
| 20260503231008 | 49 | 312 | 3.0 | 5.0 | 0.00 | 0.01 | 0.00 | 97 | 1012.5 |
| 20260503230222 | 49 | 322 | 2.0 | 6.0 | 0.00 | 0.01 | 0.00 | 97 | 1012.4 |
| 20260503225004 | 49 | 325 | 3.0 | 7.0 | 0.00 | 0.01 | 0.01 | 96 | 1012.2 |
| 20260503224008 | 49 | 321 | 3.0 | 7.0 | 0.00 | 0.01 | 0.01 | 96 | 1012.4 |
| 20260503223008 | 50 | 321 | 2.0 | 6.0 | 0.00 | 0.01 | 0.01 | 96 | 1012.3 |
| 20260503222008 | 50 | 317 | 2.0 | 6.0 | 0.00 | 0.02 | 0.01 | 96 | 1012.6 |
| 20260503221008 | 50 | 309 | 3.0 | 8.0 | 0.00 | 0.02 | 0.01 | 95 | 1012.2 |
| 20260503220008 | 50 | 313 | 3.0 | 7.0 | 0.00 | 0.02 | 0.01 | 95 | 1012.2 |
| 20260503215008 | 50 | 318 | 4.0 | 8.0 | 0.00 | 0.03 | 0.01 | 94 | 1011.8 |
| 20260503214003 | 50 | 312 | 4.0 | 7.0 | 0.00 | 0.04 | 0.01 | 94 | 1011.9 |
| 20260503213217 | 50 | 315 | 3.0 | 7.0 | 0.00 | 0.05 | 0.01 | 93 | 1011.9 |
| 20260503212013 | 50 | 318 | 4.0 | 7.0 | 0.00 | 0.06 | 0.01 | 93 | 1011.7 |
| 20260503211008 | 50 | 319 | 4.0 | 8.0 | 0.00 | 0.08 | 0.01 | 93 | 1011.7 |
| 20260503210003 | 51 | 317 | 4.0 | 9.0 | 0.00 | 0.10 | 0.01 | 92 | 1011.5 |
| 20260503205223 | 51 | 313 | 4.0 | 7.0 | 0.00 | 0.13 | 0.01 | 92 | 1011.5 |
| 20260503204008 | 51 | 320 | 4.0 | 7.0 | 0.00 | 0.14 | 0.01 | 92 | 1011.5 |
| 20260503203223 | 51 | 318 | 4.0 | 7.0 | 0.00 | 0.16 | 0.01 | 92 | 1011.6 |
| 20260503202223 | 51 | 319 | 3.0 | 6.0 | 0.00 | 0.19 | 0.01 | 92 | 1011.4 |
| 20260503201008 | 51 | 324 | 3.0 | 6.0 | 0.00 | 0.23 | 0.01 | 92 | 1011.3 |
| 20260503200003 | 51 | 324 | 3.0 | 7.0 | 0.00 | 0.26 | 0.01 | 91 | 1011.2 |
| 20260503195003 | 51 | 319 | 3.0 | 7.0 | 0.00 | 0.29 | 0.01 | 91 | 1011.1 |
| 20260503194003 | 51 | 314 | 3.0 | 6.0 | 0.00 | 0.31 | 0.01 | 91 | 1010.9 |
| 20260503193008 | 51 | 322 | 3.0 | 6.0 | 0.00 | 0.33 | 0.01 | 91 | 1011.0 |
| 20260503192008 | 52 | 322 | 3.0 | 6.0 | 0.00 | 0.34 | 0.01 | 90 | 1010.8 |
| 20260503191008 | 52 | 329 | 3.0 | 8.0 | 0.00 | 0.35 | 0.01 | 89 | 1010.6 |
| 20260503190008 | 52 | 326 | 4.0 | 6.0 | 0.00 | 0.35 | 0.01 | 88 | 1010.6 |
| 20260503185008 | 53 | 331 | 4.0 | 7.0 | 0.00 | 0.37 | 0.01 | 87 | 1010.5 |
| 20260503184008 | 54 | 333 | 4.0 | 7.0 | 0.00 | 0.38 | 0.01 | 84 | 1010.4 |
| 20260503183008 | 54 | 330 | 4.0 | 9.0 | 0.00 | 0.39 | 0.01 | 84 | 1010.3 |
| 20260503182008 | 54 | 324 | 3.0 | 6.0 | 0.00 | 0.40 | 0.01 | 85 | 1010.3 |
| 20260503181003 | 54 | 335 | 3.0 | 5.0 | 0.00 | 0.42 | 0.01 | 85 | 1010.3 |
| 20260503180008 | 54 | 329 | 3.0 | 6.0 | 0.00 | 0.43 | 0.01 | 84 | 1010.3 |
| 20260503175222 | 54 | 338 | 4.0 | 6.0 | 0.00 | 0.45 | 0.01 | 82 | 1010.1 |
| 20260503174003 | 55 | 336 | 4.0 | 7.0 | 0.00 | 0.46 | 0.01 | 83 | 1010.1 |
| 20260503173003 | 55 | 327 | 4.0 | 7.0 | 0.00 | 0.47 | 0.01 | 83 | 1009.9 |
| 20260503172008 | 55 | 332 | 4.0 | 7.0 | 0.00 | 0.47 | 0.01 | 83 | 1010.1 |
| 20260503171228 | 55 | 334 | 4.0 | 7.0 | 0.00 | 0.48 | 0.01 | 81 | 1010.2 |
| 20260503151008 | 58 | 330 | 4.0 | 8.0 | 0.00 | 0.48 | 0.01 | 71 | 1010.0 |
| 20260503131004 | 56 | 335 | 4.0 | 7.0 | 0.00 | 0.48 | 0.01 | 79 | 1010.1 |
| 20260503100217 | 53 | 335 | 3.0 | 6.0 | 0.00 | 0.48 | 0.01 | 85 | 1009.9 |
| 20260503081008 | 50 | 344 | 5.0 | 10.0 | 0.00 | 0.48 | 0.01 | 94 | 1009.6 |
| 20260503080218 | 50 | 344 | 4.0 | 10.0 | 0.00 | 0.48 | 0.01 | 94 | 1009.8 |
| 20260503072008 | 48 | 356 | 5.0 | 9.0 | 0.00 | 0.48 | 0.01 | 98 | 1009.6 |
| 20260503071222 | 48 | 346 | 4.0 | 9.0 | 0.00 | 0.48 | 0.01 | 99 | 1009.7 |
| 20260503060221 | 48 | 339 | 4.0 | 8.0 | 0.00 | 0.48 | 0.01 | 99 | 1009.8 |
| 20260503055008 | 48 | 331 | 4.0 | 7.0 | 0.00 | 0.48 | 0.01 | 99 | 1009.6 |
| 20260503054008 | 48 | 340 | 3.0 | 7.0 | 0.00 | 0.48 | 0.01 | 99 | 1009.5 |
| 20260503053003 | 48 | 335 | 4.0 | 8.0 | 0.00 | 0.48 | 0.01 | 99 | 1009.4 |
| 20260503052217 | 48 | 347 | 4.0 | 7.0 | 0.00 | 0.48 | 0.01 | 99 | 1009.5 |
| 20260503051008 | 48 | 345 | 3.0 | 7.0 | 0.00 | 0.48 | 0.01 | 99 | 1009.4 |
| 20260503050003 | 48 | 339 | 4.0 | 7.0 | 0.00 | 0.48 | 0.01 | 99 | 1009.3 |
| 20260503045013 | 48 | 325 | 4.0 | 8.0 | 0.00 | 0.48 | 0.01 | 99 | 1009.0 |
| 20260503044008 | 48 | 328 | 3.0 | 7.0 | 0.00 | 0.48 | 0.01 | 99 | 1009.2 |
| 20260503043223 | 48 | 351 | 4.0 | 7.0 | 0.00 | 0.48 | 0.01 | 99 | 1008.9 |
| 20260503042216 | 48 | 342 | 4.0 | 11.0 | 0.00 | 0.48 | 0.01 | 99 | 1009.0 |
| 20260503041008 | 48 | 343 | 4.0 | 7.0 | 0.00 | 0.48 | 0.01 | 99 | 1009.0 |
| 20260503040008 | 48 | 340 | 4.0 | 6.0 | 0.00 | 0.48 | 0.01 | 99 | 1009.1 |
| 20260503035222 | 48 | 339 | 4.0 | 7.0 | 0.00 | 0.48 | 0.01 | 99 | 1009.2 |